Siga o Apolo11 no Facebook   Siga o Apolo11 no Twiiter
Ciência, Espaço e Tecnologia




Elementos Keplerianos formato Two Line

Para que um programa de rastreio possa saber a localização exata de qualquer satélite no espaço e assim poder rastreá-lo corretamente, é necessário que ele seja carregado com algumas informações.

Estas informações são chamadas de Elementos Orbitais ou Elementos Keplerianos e consistem em 2 linhas com dezenas de números. Esses números nada mais são que os parâmetros orbitais do satélite, tais como altitude, atitude, excentricidade da órbita, número de órbitas por dia, etc.

Com base nestas informações o programa é capaz de determinar com bastante exatidão a posição de qualquer satélite no espaço e nos informar em qual horário este estará dentro do alcance de nossa estação. Para que isso seja feito com precisão é necessário que os dados estejam sempre bem atualizadas.

Devido aos parâmetros orbitais serem descritos em 2 linhas, estes formato é também conhecido internacionalmente por 2line (leia-se Two Line”).

Para atualizar seu programa de rastreio basta copiar os dados disponibilizados e fornece-los ao programa. Nossos elementos orbitais são atualizados diariamente.

NOAATodos os satélites ambientais da série NOAA
30 DiasSatélites lançados nos últimos 30 dias
ISSSatélites e foguetes relacionados à Estação Espacial Internacional
HAMSatélites construídos por radiomadores
CUBESatélites tipo cubo, com 10 centímetros de lado
METEOSatélites voltados à previsão do tempo
EDUSatélites construídos e operados por universidades
VIS100 satélites mais brilhantes que podem ser vistos a olho nú



Satélites série NOAA
NOAA 1 [-]              
1 04793U 70106A   20274.24985838 -.00000038  00000-0  38028-4 0  9996
2 04793 101.6472 340.5495 0032023  97.0955 306.9653 12.53996124279227
NOAA 2 (ITOS-D) [-]     
1 06235U 72082A   20274.54218503 -.00000032  00000-0  83115-4 0  9996
2 06235 101.8641 244.1081 0003787 187.7615 308.7382 12.53128876193691
NOAA 3 [-]              
1 06920U 73086A   20274.47272757 -.00000032  00000-0  96728-4 0  9999
2 06920 102.1180 245.3147 0006726   6.2757 104.9869 12.40339507123306
NOAA 4 [-]              
1 07529U 74089A   20274.52788639 -.00000034  00000-0  71374-4 0  9998
2 07529 101.8217 243.6396 0008643 222.0751 275.4432 12.53144700 98267
NOAA 5 [-]              
1 09057U 76077A   20274.47256390 -.00000027  00000-0  13708-3 0  9991
2 09057 101.9992 240.5805 0009475 214.1182 253.6650 12.37754535996409
TIROS N [P]             
1 11060U 78096A   20274.45483262  .00000017  00000-0  29162-4 0  9999
2 11060  98.7285 330.6939 0011485 137.0164 223.1911 14.18278831383010
NOAA 6 [P]              
1 11416U 79057A   20274.48863296  .00000039  00000-0  30272-4 0  9992
2 11416  98.6618 273.4197 0009435 306.4214  53.6100 14.33594179151971
NOAA 7 [-]              
1 12553U 81059A   20274.31583988  .00000005  00000-0  25640-4 0  9995
2 12553  99.0780 297.1595 0012535  91.4117 268.8493 14.17280996 29242
NOAA 8 [-]              
1 13923U 83022A   20274.46830632  .00000016  00000-0  23755-4 0  9993
2 13923  98.6292 258.5062 0014140 236.7661 123.2166 14.28711195953169
NOAA 9 [P]              
1 15427U 84123A   20274.61304236  .00000001  00000-0  23450-4 0  9996
2 15427  98.9530 229.3838 0015455 135.5326  37.7750 14.16107283848175
NOAA 10 [-]             
1 16969U 86073A   20274.51867128  .00000020  00000-0  25383-4 0  9995
2 16969  98.5112 263.3558 0012058 351.8458 118.2284 14.28107283771637
NOAA 11 [-]             
1 19531U 88089A   20274.44808542 -.00000002  00000-0  19651-4 0  9991
2 19531  98.4110 287.9406 0011239 175.0022 185.1267 14.15260321652416
NOAA 12 [-]             
1 21263U 91032A   20274.35951238  .00000000  00000-0  17941-4 0  9996
2 21263  98.5069 281.2629 0013852  13.5386 346.6163 14.25921643527648
NOAA 13 [-]             
1 22739U 93050A   20274.44576134  .00000024  00000-0  34856-4 0  9995
2 22739  98.4593 276.4810 0009076 341.7084  18.3761 14.12763181398808
NOAA 14 [-]             
1 23455U 94089A   20274.52427596  .00000008  00000-0  26170-4 0  9992
2 23455  98.5324 321.3832 0008710 324.8417  35.2181 14.14149368328384
NOAA 15 [B]             
1 25338U 98030A   20274.47386498  .00000035  00000-0  33252-4 0  9992
2 25338  98.7112 298.9587 0009632 322.2118  37.8384 14.25991611163943
NOAA 16 [-]             
1 26536U 00055A   20274.54557375  .00000012  00000-0  29227-4 0  9997
2 26536  98.7239 341.0652 0011235 143.2390 216.9555 14.13258937329085
NOAA 17 [-]             
1 27453U 02032A   20274.55181000 -.00000004  00000-0  16667-4 0  9998
2 27453  98.5927 218.8410 0010652 293.9105  66.0958 14.25073560949852
NOAA 18 [B]             
1 28654U 05018A   20274.49341887  .00000076  00000-0  65937-4 0  9995
2 28654  99.0331 331.8487 0013295 296.7228  63.2582 14.12542900791744
NOAA 19 [+]             
1 33591U 09005A   20274.43402579  .00000019  00000-0  35862-4 0  9992
2 33591  99.1971 282.5193 0014638 138.7701 221.4578 14.12433293599956
SUOMI NPP [+]           
1 37849U 11061A   20274.57436913 -.00000001  00000-0  20200-4 0  9993
2 37849  98.7068 211.0887 0000904  59.2496  46.3107 14.19555370462548
NOAA 20 [+]             
1 43013U 17073A   20274.58830861 -.00000002  00000-0  19788-4 0  9993
2 43013  98.7233 210.9310 0001379  77.0127 283.1203 14.19537240148575


IMAGENS DE SATÉLITES !    Clique e conheça nosso Vídeo Workshop de sensoriamento remoto e imagens meteorológicas.
Apolo11.com - Todos os direitos reservados - 2001 - 2020
Política de Privacidade

"Político honesto é o que, depois de comprado, permanece comprado" - Simon Cameron